Location: El Portezuelo
(28.4984°N, 16.3589°W)
Time: 19:44:20
(UTC+00:00)

COSMOS 2455 - Pass Details

Date: 20 January 2020
Orbit: 902 x 908 km, 67.1° (Epoch: 28 February)

Event Time Altitude Azimuth Distance (km) Brightness Sun altitude
Rises 06:13:01 0° 208° (SSW) 3,509 5.8 -22.9°
Reaches altitude 10° 06:15:31 10° 211° (SSW) 2,571 5.0 -22.4°
Maximum altitude 06:21:28 70° 294° (WNW) 955 2.7 -21.1°
Drops below altitude 10° 06:27:27 10° 19° (NNE) 2,586 5.3 -19.8°
Sets 06:29:59 0° 21° (NNE) 3,530 6.0 -19.3°
